Temp_Advection
nan nan nan nan nan nan nan nan nan nan nan nan nan nan nan nan nan nan nan nan nan nan nan nan nan nan nan nan nan nan nan nan nan nan nan nan nan nan nan nan nan nan nan
nan -0 -0 0 0 0 -0 0 -0 -0 0 0 0 0 0 0 0 0 0 -0 0 0 0 0 0 -0 -0 0 0 0 0 0 0 -0 -0 -1 -0 -0 -0 -0 0 0 nan
nan -0 0 -0 -0 -0 0 0 0 0 0 0 0 0 0 0 0 0 0 0 0 -0 -0 0 0 0 0 -0 -0 -0 -0 0 0 -0 -0 -1 -1 -0 -0 -0 -0 0 nan
nan 0 -0 -0 -0 0 0 0 0 1 1 1 0 0 0 0 0 0 0 0 0 0 0 -0 -0 0 0 -0 -0 -0 -0 -0 -0 -1 -1 -0 -1 -1 -0 -1 -0 -1 nan
nan 0 -0 -0 0 0 0 1 1 1 1 0 0 1 1 0 0 0 -0 -0 -0 0 1 0 0 0 0 -0 -0 -0 -0 0 -0 -1 -0 -0 -0 -1 -0 -0 -0 -0 nan
nan 0 0 0 0 0 1 2 2 1 -0 1 1 0 -0 -0 0 -0 -0 0 -0 0 0 0 0 -0 0 0 0 -0 -0 0 0 0 -0 0 -0 -0 -0 -1 -1 -1 nan
nan 0 -0 0 1 2 2 2 1 -0 0 1 0 -0 -0 1 0 0 -0 -0 0 0 0 0 0 -0 -0 0 0 0 0 0 0 0 0 -0 0 -0 -0 0 -0 -0 nan
nan -0 0 1 3 3 2 1 0 0 0 1 1 0 1 1 0 -0 -0 0 0 0 0 0 0 -0 -0 -0 -0 -0 0 1 0 0 -0 -0 -0 -0 -0 -0 -0 -0 nan
nan 1 1 4 4 3 2 1 1 1 1 1 1 0 1 1 -0 -0 -0 0 0 0 0 0 0 0 -0 -0 -0 -0 -0 0 0 -0 0 0 0 -0 0 0 -0 -1 nan
nan 3 5 3 2 1 0 2 1 2 1 2 1 0 1 0 -0 0 0 0 0 0 0 -0 -0 0 0 0 0 -0 -0 -0 -0 -0 -0 -0 -1 -1 -0 0 0 -0 nan
nan 3 1 -0 0 0 -0 1 1 1 1 1 0 1 0 0 0 0 0 0 0 0 0 -0 0 0 0 -0 0 1 0 -0 -0 -0 0 0 -0 -1 -1 -0 0 -1 nan
nan 1 0 1 1 1 0 0 1 2 1 1 1 1 0 0 0 0 0 0 0 -0 0 0 0 0 -0 0 0 -0 0 0 1 0 -1 -1 -0 -0 -0 0 0 -0 nan
nan 1 2 2 2 2 2 1 2 2 0 0 0 -0 0 0 0 -0 -0 -0 -0 -0 0 -0 -0 -0 -0 -1 -0 -0 0 1 0 -0 -0 -0 -1 -0 -0 -0 -0 -1 nan
nan 2 2 2 2 1 1 1 1 -0 0 0 -0 0 0 0 -0 -0 -0 -0 0 0 0 -0 -0 -1 -1 -0 0 0 -0 -1 0 0 -1 -0 -0 -1 -1 -1 -0 -0 nan
nan 2 2 1 1 0 0 0 0 -0 -0 0 0 0 0 0 -0 -0 -0 -0 -0 0 -0 -0 -0 -0 -0 -0 -1 -1 -0 -1 0 1 -0 -1 -0 -0 -0 -1 -1 -1 nan
nan 1 1 1 1 0 0 -0 0 0 0 0 0 0 -0 -0 0 0 0 -0 -0 -0 -0 -0 -1 -1 -1 -1 -0 -0 -0 -0 -1 0 0 0 -0 -0 -1 -0 -1 -1 nan
nan -1 -0 0 0 0 0 0 0 0 0 -0 -0 -0 -0 -0 -0 -0 -0 -0 -0 -0 -0 -0 -1 -1 -1 -1 -0 0 -0 0 -0 -0 -0 -0 -0 0 -0 -0 -0 -1 nan
nan 0 -0 -0 0 0 0 0 0 -0 -0 -0 -0 -0 -0 -0 -0 -0 -0 -0 -0 -0 -1 -1 -0 -0 -0 0 -0 -0 -0 -1 -0 -1 0 0 -0 -0 0 0 0 -0 nan
nan 1 1 0 0 0 0 -0 0 -0 -0 -0 -0 -0 -0 -0 -0 -0 -0 -0 -0 -1 -0 -0 0 0 0 0 0 0 0 -0 -0 -1 -1 -0 -0 0 0 0 0 0 nan
nan -0 -0 -0 0 -0 -0 0 -0 -0 -0 -0 -0 0 -0 -0 -0 -0 -0 -0 -0 -0 0 0 0 0 0 0 1 1 0 1 0 0 -0 0 -0 0 0 0 1 1 nan
nan -0 0 -0 -0 0 -0 -0 -0 -0 -0 -0 -0 -0 -0 -0 0 -0 -0 -0 -0 0 0 0 0 0 0 0 0 0 1 1 1 1 2 0 0 0 0 0 0 1 nan
nan -0 0 0 -0 -0 -0 -0 -0 -0 -0 -0 -0 -0 -0 -0 -0 -0 -0 -0 0 0 -0 -0 -0 0 0 0 0 0 0 0 1 1 1 1 0 -0 -0 -0 -0 0 nan
nan -0 -0 -0 -0 -0 -0 -0 -0 -0 -0 -0 -0 0 -0 -0 0 0 -0 0 0 -0 0 0 -0 0 0 0 0 0 0 0 0 0 0 -1 -1 -1 -0 -0 -0 -0 nan
nan -0 -0 -0 -0 -0 -0 -0 -0 -0 -0 -0 0 -0 -0 0 0 0 0 -0 -0 0 0 0 0 0 -0 0 0 0 0 0 0 0 -0 -1 -0 0 0 0 0 -0 nan
nan -1 -1 -0 -0 -0 -0 -0 -0 -0 -0 -0 0 0 0 0 0 0 -0 -0 -0 -0 -0 -0 0 -0 -0 -0 0 0 0 0 0 0 -0 0 0 1 0 0 0 0 nan
nan nan nan nan nan nan nan nan nan nan nan nan nan nan nan nan nan nan nan nan nan nan nan nan nan nan nan nan nan nan nan nan nan nan nan nan nan nan nan nan nan nan nan
Wind_Speed
33 32 30 28 28 26 25 22 22 21 20 20 20 20 19 18 18 18 16 17 20 17 17 17 15 15 14 16 18 19 19 18 20 20 19 21 20 17 16 16 16 17 17
32 32 31 29 28 28 27 24 23 23 22 23 22 21 20 21 21 17 17 19 16 16 17 16 15 16 15 15 15 16 18 20 21 24 22 23 24 22 19 18 18 17 17
31 31 31 30 29 28 27 27 26 23 23 23 25 25 23 21 17 17 16 14 14 14 15 17 19 19 18 18 18 19 19 20 21 24 25 23 23 21 19 18 18 19 21
35 34 34 32 29 28 28 29 28 25 22 22 24 24 23 20 17 15 11 11 12 15 16 17 18 19 19 18 19 18 18 18 15 17 23 24 22 21 18 18 16 18 19
37 38 35 31 30 29 28 27 27 25 22 21 23 23 20 17 16 15 12 8 13 13 15 15 15 17 17 18 19 19 19 18 17 18 19 17 18 17 16 17 18 17 19
36 40 38 35 30 27 26 29 27 22 19 21 20 18 15 17 17 17 13 14 14 12 12 15 15 15 16 17 19 19 19 19 19 14 14 14 15 18 18 18 19 18 17
37 38 39 38 36 32 31 29 26 22 22 24 20 19 18 18 16 15 15 14 12 12 13 14 12 11 15 17 20 20 21 21 22 21 21 19 19 16 19 21 18 18 20
37 39 37 37 38 37 33 28 25 24 24 23 21 19 18 17 14 16 13 10 12 13 14 14 11 11 14 17 20 22 24 23 22 23 25 24 23 22 22 23 25 27 26
37 40 39 36 39 37 30 26 30 27 22 25 24 16 19 16 13 11 10 12 14 16 16 15 16 17 17 20 23 24 25 26 22 24 24 25 25 24 24 27 22 23 26
42 38 38 35 35 25 22 27 26 27 21 25 21 14 11 11 10 11 13 13 15 16 17 19 21 23 23 22 24 27 28 25 26 30 32 33 34 34 34 33 30 24 26
37 37 33 26 22 25 24 22 22 21 19 22 18 14 12 9 11 11 12 14 16 18 20 22 25 25 24 24 29 29 29 32 35 35 36 31 29 28 28 27 25 27 28
33 32 30 28 26 30 29 31 26 24 19 16 15 12 9 8 9 12 14 15 16 18 20 21 21 23 27 26 26 29 32 34 37 29 30 30 30 28 27 24 25 27 27
28 26 24 29 36 34 28 25 18 17 18 15 10 8 6 8 11 12 13 15 18 20 22 23 24 23 25 28 33 36 36 32 24 21 21 21 22 23 23 21 20 19 21
30 34 36 35 34 24 20 19 20 17 13 11 7 6 6 6 9 12 14 17 20 22 23 24 26 28 30 30 25 20 17 16 18 18 19 20 24 26 27 19 22 22 21
38 39 39 31 25 26 24 23 19 14 10 6 3 3 4 6 10 14 17 20 21 23 23 25 24 21 18 16 15 16 16 16 17 15 17 19 20 20 21 23 28 23 23
38 32 30 30 27 24 22 22 15 10 7 3 2 3 5 10 14 17 19 19 19 17 14 12 13 14 14 15 16 16 15 17 18 20 21 21 21 22 25 23 19 21 28
32 28 23 19 20 20 18 14 10 9 5 1 3 6 8 9 8 6 5 5 7 9 9 9 9 11 13 14 16 20 22 21 21 22 22 23 23 24 23 24 23 22 23
23 20 16 17 16 15 15 13 11 7 4 2 6 6 6 7 8 8 8 8 7 8 9 10 11 11 13 15 20 21 21 23 23 24 25 25 25 24 25 25 25 24 25
28 26 22 18 15 14 13 12 9 6 3 3 4 6 7 8 9 8 8 6 8 9 8 9 10 12 13 15 15 18 25 21 24 25 27 27 26 25 25 24 26 27 26
25 20 17 16 13 9 8 6 6 5 6 7 7 6 5 7 6 6 6 7 7 7 7 9 11 12 14 17 21 25 23 23 25 26 27 29 26 25 25 25 25 27 25
17 14 10 9 9 8 6 6 7 8 8 8 7 5 6 7 6 6 6 6 6 6 8 10 10 13 16 18 22 25 28 31 31 33 36 33 29 26 25 25 25 26 23
11 9 9 8 8 8 8 9 9 9 9 8 8 7 7 8 6 5 5 5 6 6 6 8 10 13 17 19 22 24 27 31 35 39 40 36 33 31 29 26 25 25 24
11 8 8 10 10 10 9 10 10 10 10 9 9 8 7 4 3 4 3 4 5 5 6 6 8 12 15 18 21 23 26 29 30 34 38 40 40 37 32 27 25 23 23
12 11 10 10 10 10 11 10 10 10 10 9 8 7 4 2 2 3 2 3 4 5 5 7 7 10 13 16 18 21 22 25 27 29 32 31 30 33 36 35 28 23 25
10 11 11 11 11 11 10 11 10 9 7 5 4 3 0 1 2 2 3 4 4 5 6 7 7 7 9 13 15 18 18 20 24 27 29 24 26 30 31 39 38 35 28
14 14 13 12 11 10 9 9 7 4 2 2 2 0 1 2 2 2 4 5 6 7 7 7 7 7 7 10 13 16 18 18 21 23 27 25 25 28 28 31 34 42 38
Wind_Direction
229 232 234 236 235 234 235 237 237 237 236 237 242 252 261 269 280 287 287 294 301 306 310 313 315 310 309 307 304 304 303 302 296 300 303 309 310 309 301 298 293 289 292
231 233 233 236 237 237 237 238 239 239 239 241 245 250 258 269 286 284 286 297 294 302 314 317 316 313 312 305 300 300 300 300 300 302 302 307 310 312 307 294 288 292 293
224 228 231 233 236 238 239 239 241 241 241 243 247 252 261 271 271 275 291 293 296 307 311 313 318 322 321 318 316 313 307 304 305 306 305 307 306 310 310 303 294 291 292
225 226 229 230 231 235 236 238 240 242 242 243 243 245 247 251 249 253 248 280 299 302 307 315 322 325 327 334 335 332 326 317 310 309 308 309 308 306 306 305 301 292 286
223 224 225 222 228 233 233 233 236 237 236 241 241 240 240 235 243 250 262 266 271 294 301 315 318 324 326 328 327 328 329 329 326 322 317 312 307 308 302 299 299 297 292
228 227 224 226 225 224 229 229 229 223 233 237 231 229 237 247 248 243 237 241 260 272 291 302 314 321 322 320 315 314 314 314 318 317 317 316 317 319 306 305 299 295 293
231 230 228 227 228 226 223 223 218 215 228 226 224 223 225 237 246 245 241 249 263 269 283 297 315 324 326 323 316 309 302 300 299 301 303 308 309 310 309 309 303 296 282
233 230 226 227 229 227 224 216 205 213 226 228 223 228 238 267 234 245 252 265 270 274 290 294 303 321 328 325 319 316 310 303 294 293 295 296 296 300 300 298 296 295 289
231 230 224 224 225 225 219 209 205 211 217 229 219 231 265 250 242 246 256 263 273 277 285 296 299 308 309 310 306 303 303 303 296 291 290 293 295 295 296 297 293 286 284
232 228 225 222 219 210 203 209 202 211 210 231 225 261 237 229 244 254 262 270 275 278 285 292 296 295 288 292 298 294 289 290 290 290 290 292 293 292 291 289 288 282 282
229 219 216 215 203 192 182 198 216 209 224 222 241 225 211 217 238 262 276 281 281 281 283 289 290 289 287 290 293 290 292 291 291 290 292 293 291 290 287 282 275 275 274
216 211 202 190 189 175 169 201 210 257 244 216 203 193 200 235 266 276 285 286 285 286 287 287 286 289 293 296 294 293 292 290 290 290 291 291 289 289 286 280 273 273 268
195 190 176 175 178 182 177 192 224 201 183 182 183 205 237 267 287 297 302 307 305 301 298 297 299 300 299 298 294 292 291 293 295 293 291 290 289 289 291 291 286 282 281
169 169 169 170 167 171 168 159 163 166 166 178 198 238 266 284 296 304 303 297 294 294 296 298 300 300 300 302 302 305 305 300 297 298 293 292 293 293 287 284 286 283 276
163 162 158 162 163 154 151 151 159 163 170 181 216 257 280 289 298 298 300 301 299 298 301 303 308 315 322 324 324 322 323 322 317 311 310 307 307 307 301 294 277 274 276
148 147 148 148 149 150 152 146 143 152 163 177 230 266 307 313 308 302 302 307 311 316 322 329 335 333 335 341 341 334 329 331 331 329 324 322 316 307 306 302 293 288 283
138 132 131 138 142 142 137 138 151 152 138 100 319 321 321 321 320 333 0 1 0 353 348 349 360 353 349 348 345 350 344 343 339 334 330 328 319 316 313 308 303 292 286
130 154 144 146 139 137 137 133 139 134 119 31 351 354 12 19 24 27 19 14 22 24 17 15 15 1 1 358 5 358 347 348 343 338 338 333 330 323 316 311 304 294 288
134 122 132 134 134 138 127 120 113 88 59 43 53 57 54 44 37 29 26 32 45 51 14 5 7 2 2 7 358 2 9 353 349 343 343 342 334 328 319 311 305 298 290
107 116 120 121 120 108 111 102 87 89 100 108 106 94 70 47 50 59 62 66 60 51 34 17 15 18 17 10 12 13 6 0 356 351 345 347 342 336 329 323 318 313 291
104 114 115 115 116 107 89 88 97 107 110 108 99 92 94 98 87 69 49 38 52 52 53 36 22 17 12 10 13 14 14 13 8 3 1 360 353 346 340 332 324 323 311
105 113 112 98 88 90 104 100 100 110 113 109 106 107 102 95 91 71 60 45 32 30 40 34 23 16 14 14 13 13 13 13 13 12 11 10 7 2 355 347 336 329 323
90 88 89 91 95 96 97 101 112 115 112 113 114 106 102 93 61 58 59 57 37 27 19 15 15 17 16 15 13 13 13 11 11 12 14 19 16 10 4 355 345 335 331
67 71 76 86 93 100 103 107 106 108 114 116 118 124 127 117 73 48 47 32 1 358 4 6 7 11 13 14 17 15 12 10 10 12 13 15 9 10 16 17 8 358 342
79 82 88 90 94 98 103 110 115 116 110 113 119 123 46 43 32 63 1 354 356 355 355 358 359 2 8 14 19 17 17 16 16 17 17 15 12 11 15 22 25 25 17
78 79 82 86 92 100 109 111 108 104 126 125 108 18 0 346 354 342 338 334 337 339 344 351 355 358 1 10 19 19 17 12 13 15 21 21 15 15 19 18 21 31 32
Height
1512 1515 1520 1523 1527 1530 1533 1537 1540 1543 1544 1545 1546 1546 1547 1547 1547 1548 1549 1549 1550 1549 1550 1548 1546 1544 1542 1541 1541 1539 1536 1533 1531 1529 1527 1525 1523 1522 1520 1518 1516 1514 1513
1504 1509 1513 1517 1521 1524 1528 1531 1533 1535 1537 1539 1539 1540 1541 1542 1544 1545 1545 1546 1546 1545 1546 1545 1544 1542 1540 1537 1534 1533 1532 1531 1528 1525 1524 1521 1519 1518 1516 1513 1512 1510 1508
1497 1502 1506 1510 1514 1518 1521 1523 1526 1529 1531 1533 1535 1535 1537 1538 1539 1538 1541 1542 1540 1540 1541 1541 1539 1538 1537 1535 1532 1530 1528 1525 1523 1521 1517 1516 1513 1511 1510 1508 1507 1506 1505
1489 1494 1498 1503 1507 1511 1514 1516 1519 1523 1526 1528 1528 1528 1529 1529 1529 1530 1526 1532 1536 1537 1537 1537 1534 1533 1531 1529 1528 1526 1524 1521 1518 1515 1514 1511 1509 1507 1505 1503 1502 1500 1498
1480 1485 1490 1496 1499 1503 1506 1509 1513 1517 1520 1522 1523 1524 1525 1525 1526 1526 1527 1526 1526 1526 1532 1532 1531 1529 1528 1525 1524 1523 1521 1519 1517 1512 1509 1508 1505 1502 1500 1499 1496 1495 1493
1472 1476 1483 1487 1492 1495 1499 1502 1506 1511 1515 1517 1518 1521 1524 1525 1523 1523 1517 1519 1520 1522 1526 1527 1526 1524 1522 1522 1521 1519 1517 1515 1512 1510 1507 1504 1501 1499 1496 1494 1491 1490 1488
1463 1467 1474 1480 1483 1487 1490 1495 1501 1507 1508 1510 1513 1514 1515 1518 1519 1520 1517 1515 1518 1520 1519 1520 1520 1519 1518 1517 1517 1516 1514 1510 1508 1506 1504 1501 1497 1494 1492 1490 1488 1485 1482
1454 1458 1463 1469 1474 1478 1483 1489 1496 1500 1503 1505 1509 1513 1515 1516 1516 1516 1514 1512 1516 1516 1514 1516 1516 1514 1513 1512 1513 1512 1509 1505 1502 1500 1498 1495 1493 1489 1487 1485 1482 1480 1475
1442 1447 1453 1459 1465 1470 1479 1487 1489 1493 1499 1502 1502 1504 1507 1510 1512 1512 1511 1511 1512 1512 1511 1511 1512 1510 1507 1506 1505 1503 1501 1498 1496 1494 1491 1489 1487 1485 1482 1478 1477 1475 1471
1434 1438 1447 1454 1459 1469 1480 1487 1492 1495 1494 1499 1503 1500 1500 1502 1508 1509 1509 1507 1509 1510 1510 1508 1505 1505 1503 1499 1497 1496 1492 1491 1488 1487 1484 1481 1479 1477 1476 1472 1470 1467 1465
1428 1433 1439 1449 1458 1465 1472 1488 1497 1498 1483 1496 1499 1496 1496 1499 1503 1505 1506 1506 1506 1505 1504 1502 1500 1499 1496 1493 1490 1488 1484 1480 1480 1478 1474 1472 1470 1466 1466 1464 1460 1458 1455
1418 1430 1433 1437 1455 1460 1457 1466 1476 1486 1499 1494 1496 1495 1494 1496 1499 1501 1501 1501 1500 1499 1497 1494 1492 1491 1489 1486 1483 1481 1476 1472 1471 1469 1465 1462 1460 1456 1455 1452 1449 1446 1444
1416 1428 1435 1443 1448 1458 1457 1464 1470 1481 1489 1494 1494 1495 1495 1495 1497 1497 1497 1496 1496 1494 1492 1489 1486 1482 1480 1478 1477 1472 1467 1464 1462 1460 1457 1453 1452 1449 1444 1441 1438 1436 1433
1416 1424 1430 1438 1449 1456 1458 1462 1471 1483 1487 1491 1491 1493 1493 1492 1493 1492 1491 1490 1489 1488 1487 1484 1481 1477 1472 1469 1467 1463 1460 1457 1453 1452 1450 1445 1441 1437 1434 1433 1431 1429 1427
1415 1423 1431 1438 1446 1452 1457 1464 1472 1476 1482 1485 1489 1490 1490 1490 1488 1488 1486 1484 1483 1482 1480 1478 1474 1471 1467 1463 1461 1459 1455 1452 1449 1446 1442 1438 1434 1431 1428 1425 1423 1421 1418
1424 1434 1440 1442 1447 1451 1455 1462 1469 1474 1479 1483 1487 1486 1485 1484 1484 1483 1481 1479 1479 1477 1476 1472 1470 1468 1467 1461 1458 1456 1452 1448 1444 1440 1436 1432 1428 1425 1421 1416 1417 1414 1410
1430 1438 1446 1454 1454 1453 1455 1461 1468 1475 1476 1480 1484 1483 1481 1479 1478 1477 1474 1474 1472 1473 1474 1473 1469 1467 1466 1461 1458 1453 1448 1444 1440 1436 1431 1426 1423 1419 1414 1410 1407 1405 1402
1423 1440 1437 1459 1460 1461 1461 1462 1469 1470 1471 1472 1475 1476 1475 1474 1474 1473 1473 1473 1471 1471 1474 1473 1469 1467 1464 1461 1455 1451 1447 1441 1436 1432 1426 1421 1416 1411 1406 1403 1401 1398 1395
1440 1436 1448 1456 1462 1466 1464 1462 1462 1463 1467 1468 1471 1471 1471 1472 1472 1473 1474 1476 1475 1470 1478 1476 1470 1467 1464 1461 1457 1452 1445 1440 1433 1427 1421 1416 1411 1405 1400 1396 1392 1389 1386
1434 1447 1453 1456 1459 1460 1462 1460 1458 1461 1463 1466 1468 1469 1470 1470 1472 1473 1474 1471 1474 1473 1474 1475 1471 1467 1465 1461 1455 1449 1444 1439 1432 1425 1418 1412 1405 1399 1393 1388 1384 1379 1377
1443 1452 1456 1457 1458 1456 1457 1458 1457 1461 1464 1465 1466 1468 1471 1472 1474 1474 1476 1477 1474 1474 1470 1472 1471 1467 1463 1459 1453 1448 1443 1436 1429 1423 1415 1407 1400 1393 1388 1382 1377 1373 1369
1451 1456 1456 1454 1453 1453 1456 1456 1456 1459 1461 1464 1466 1469 1471 1473 1474 1476 1474 1475 1475 1474 1471 1469 1469 1466 1462 1457 1452 1447 1441 1434 1428 1422 1414 1406 1399 1391 1383 1377 1373 1368 1364
1451 1454 1454 1452 1453 1454 1455 1456 1459 1462 1462 1465 1468 1470 1472 1476 1477 1474 1475 1472 1473 1472 1470 1468 1466 1464 1460 1456 1451 1445 1440 1435 1429 1423 1416 1407 1399 1392 1384 1376 1370 1365 1360
1451 1454 1455 1456 1457 1458 1458 1461 1463 1465 1467 1469 1470 1470 1472 1473 1470 1473 1475 1471 1471 1470 1468 1466 1464 1462 1459 1456 1451 1446 1441 1436 1430 1424 1418 1411 1405 1398 1388 1379 1370 1364 1357
1454 1456 1458 1458 1458 1459 1461 1462 1465 1470 1472 1473 1471 1472 1474 1472 1473 1469 1473 1472 1470 1469 1466 1464 1463 1460 1458 1454 1450 1446 1442 1438 1431 1425 1420 1415 1410 1403 1396 1386 1376 1366 1358
1456 1458 1459 1459 1461 1463 1467 1470 1470 1471 1475 1473 1471 1473 1473 1474 1470 1469 1470 1470 1469 1467 1464 1462 1461 1458 1455 1452 1448 1445 1442 1437 1432 1427 1422 1417 1413 1408 1401 1394 1385 1375 1367